Regional Weather Roundup
Issued by NWS

Home | Current Version | Previous Version | Text Only | Print | Product List | Glossary Off
Versions: 1 2 3 4 5 6 7 8 9 10 11 12 13 14 15 16 17 18 19 20 21 22 23 24 25 26 27 28 29 30 31 32 33 34 35 36 37 38 39 40 41 42 43 44 45 46 47 48 49 50

000
ASUS43 KMKX 161711
RWRWI

WISCONSIN REGIONAL WEATHER ROUNDUP
NATIONAL WEATHER SERVICE MILWAUKEE/SULLIVAN WI
1100 AM CST MON JAN 16 2017

NOTE: "FAIR" INDICATES FEW OR NO CLOUDS BELOW 12,000 FEET WITH NO
SIGNIFICANT WEATHER AND/OR OBSTRUCTIONS TO VISIBILITY.

WIZ001-002-006>008-014>016-023>028-161800-
NORTHWEST WISCONSIN

CITY           SKY/WX    TMP DP  RH WIND       PRES   REMARKS
SUPERIOR ARPT  CLOUDY    23  18  78 SW6       30.17S WCI  16
ASHLAND        SUNNY     27  17  66 SW12      30.16F WCI  17
HAYWARD        CLOUDY    25  17  72 SW5       30.16F WCI  19
SIREN          CLOUDY    23  17  76 S3        30.17S
CUMBERLAND     CLOUDY    12   9  85 CALM      30.16S FOG
RICE LAKE      CLOUDY    11   8  86 CALM      30.20S FOG
CHETEK         CLOUDY    14  10  85 CALM      30.19S
LADYSMITH      CLOUDY    15  13  90 CALM      30.20S
EAU CLAIRE     CLOUDY    17  13  84 NE3       30.18F
MENOMONIE      CLOUDY    13  11  90 CALM      30.19F FOG
NEW RICHMOND   CLOUDY    19  17  92 CALM      30.17S
OSCEOLA        CLOUDY    19  14  81 E5        30.20F WCI  13
$$

WIZ003>005-009-010-017-018-161800-
NORTH CENTRAL WISCONSIN

CITY           SKY/WX    TMP DP  RH WIND       PRES   REMARKS
MANITOWISH WTR MOSUNNY   21  17  83 S3        30.15F
ARBOR VITAE    CLOUDY    19  17  89 CALM      30.14F
WOODRUFF       CLOUDY    19  17  89 CALM      30.14F
RHINELANDER    CLOUDY    17  15  92 CALM      30.17F FOG
EAGLE RIVER    CLOUDY    22  12  66 CALM      30.15F
LAND O LAKES   CLOUDY    27  16  63 CALM      30.16F
PHILLIPS       CLOUDY   N/A N/A N/A CALM      30.16F
TOMAHAWK       CLOUDY    18  14  83 CALM      30.18S
MEDFORD        CLOUDY    18  12  79 S5        30.16F WCI  11
MERRILL        CLOUDY    11   4  74 CALM        N/A
$$

WIZ029-030-035-036-043>047-161800-
CENTRAL WISCONSIN

CITY           SKY/WX    TMP DP  RH WIND       PRES   REMARKS
WAUSAU         CLOUDY    13   8  81 CALM      30.19F HAZE
MOSINEE        PTSUNNY   14  12  92 CALM      30.21F
MARSHFIELD     CLOUDY    18  12  77 NE6       30.17F HAZE    WCI  10
STEVENS POINT  CLOUDY    19  15  86 CALM      30.21F
WAUPACA        CLOUDY    26  17  69 CALM      30.23F
WAUTOMA        MIX PCPN  30  28  92 CALM      30.22F
WISC RAPIDS    CLOUDY    24  19  81 CALM      30.21F
CAMP DOUGLAS   CLOUDY    28  21  74 E5        30.18F WCI  23
$$

WIZ011>013-019>022-031-037>040-048>050-161800-
NORTHEAST WISCONSIN

CITY           SKY/WX    TMP DP  RH WIND       PRES   REMARKS
ANTIGO         CLOUDY    16  12  85 CALM      30.18F
SHAWANO        MOSUNNY   24  14  68 CALM      30.24F
OCONTO         CLOUDY    22  13  67 CALM      30.24F
STURGEON BAY   CLOUDY    28  18  66 S6        30.25F WCI  22
GREEN BAY      CLOUDY    28  21  75 CALM      30.24F
MANITOWOC      CLOUDY    29  20  69 CALM      30.25F
APPLETON       PTSUNNY   27  18  69 CALM      30.22S
CLINTONVILLE   CLOUDY    18  10  73 CALM      30.23F
OSHKOSH        CLOUDY    30  20  66 CALM      30.22F
$$

WIZ032>034-041-042-053>061-161800-
SOUTHWEST WISCONSIN

CITY           SKY/WX    TMP DP  RH WIND       PRES   REMARKS
LA CROSSE      CLOUDY    30  21  69 NW3       30.18F
SPARTA         CLOUDY    29  24  80 CALM      30.19F
VIROQUA        CLOUDY    30  29  94 E7        30.15S WCI  23
BOSCOBEL       CLOUDY    31  28  89 VRB6      30.18F FOG     WCI  25
PRAIRIE DU CHI MIX PCPN  32  30  92 CALM      30.15F
PLATTEVILLE    CLOUDY    32  32 100 E8        30.14F WCI  25
$$

WIZ056-057-062-063-064-067-068-161800-
SOUTH CENTRAL WISCONSIN

CITY           SKY/WX    TMP DP  RH WIND       PRES   REMARKS
REEDSBURG      DRIZZLE   29  26  89 E5        30.18F WCI  24
BARABOO/DELLS  CLOUDY    29  26  86 E5        30.18F WCI  24
LONE ROCK      CLOUDY    31  28  89 E8        30.18F FOG     WCI  23
MINERAL POINT  LGT RAIN  32  32 100 E6        30.14F WCI  26
MADISON        FRZ RAIN  31  29  92 E7        30.19F FOG     WCI  24
MIDDLETON      CLOUDY    32  32  99 E5        30.19F WCI  27
WATERTOWN      MIX PCPN  31  31 100 SE3       30.20F
MONROE         MIX PCPN  32  32 100 E6        30.15F WCI  26
JANESVILLE     DRIZZLE   34  34 100 E8        30.19F WCI  27
$$

WIZ051-052-058>065-066-070>072-161800-
SOUTHEAST WISCONSIN

CITY           SKY/WX    TMP DP  RH WIND       PRES   REMARKS
MILWAUKEE      LGT RAIN  34  30  85 SE7       30.23F FOG     WCI  28
WAUKESHA       CLOUDY    30  28  93 E5        30.22F WCI  25
MILWAUKEE/TIMM LGT RAIN  32  27  80 SE6       30.24F FOG     WCI  26
RACINE         LGT RAIN  33  30  88 SE5       30.24F FOG     WCI  29
KENOSHA        CLOUDY    33  30  88 E6        30.23F FOG     WCI  28
FOND DU LAC    CLOUDY    32  21  64 NE5       30.21F WCI  27
SHEBOYGAN      CLOUDY    31  20  63 NE3       30.23F
WEST BEND      CLOUDY    32  30  93 S5        30.22F WCI  27
JUNEAU         CLOUDY    31  25  79 SE6       30.22F WCI  25
$$

LSZ147-162-161800-
LAKE SUPERIOR

STATION/POSITION TIME  TEMP    WIND        PRES    WAVE
                       AIR SEA DIR/SP/G            HT/PER
                 (UTC) (F)     (DEG/KT/KT) (MB)    (FT/S)
DEVILS ISLAND    1700   28     240/ 14/ 18 1021.9F
PORT WING        1640   27     200/  5/  9 1021.7R
SAXON HARBOR     1640   31     210/  4/ 11 1021.3S
$$

LMZ867-665-643>646-161800-
LAKE MICHIGAN

STATION/POSITION TIME  TEMP    WIND        PRES    WAVE
                       AIR SEA DIR/SP/G            HT/PER
                 (UTC) (F)     (DEG/KT/KT) (MB)    (FT/S)
NORTHPORT PIER   1640   31        CALM     1024.0F
SISTER BAY       1620             CALM       N/A
KEWAUNEE LAKESHO 1642   29        CALM     1024.0F
SHEBOYGAN LAKESH 1700   31      CALM  /  1 1024.6F
PORT WASHINGTON  1630   33     200/  3/  5 1025.4S
MILWAUKEE LAKESH 1630   31     150/  4/  4   N/A
KENOSHA   LAKESH 1700   33      CALM  /  2 1023.7
$$

TC  - TEMPERATURE IN CELSIUS
VSB - VISIBILITY IN STATUTE MILES
WCI - WIND CHILL INDEX
HX  - HEAT INDEX




USA.gov is the U.S. government's official web portal to all federal, state and local government web resources and services.